Time,TemperatureF,DewpointF,PressureIn,WindDirection,WindDirectionDegrees,WindSpeedMPH,WindSpeedGustMPH,Humidity,HourlyPrecipIn,Conditions,Clouds,dailyrainin,SoftwareType,DateUTC
2016-12-06 00:03:00,34.0,33.0,-100.00,North,-9999,0.0,1.0,97,-99.99,,,-99.99,,2016-12-06 08:03:00,
2016-12-06 00:13:00,34.0,33.0,-100.00,North,-9999,0.0,1.0,97,-99.99,,,-99.99,,2016-12-06 08:13:00,
2016-12-06 00:23:00,34.0,33.0,-100.00,North,-9999,0.0,1.0,97,-99.99,,,-99.99,,2016-12-06 08:23:00,
2016-12-06 00:33:00,35.0,34.0,-100.00,SE,134,4.0,6.0,98,-99.99,,,-99.99,,2016-12-06 08:33:00,
2016-12-06 00:58:00,35.0,34.0,-100.00,SE,134,4.0,6.0,98,-99.99,,,-99.99,,2016-12-06 08:58:00,
2016-12-06 01:04:00,35.0,34.0,-100.00,SE,134,4.0,6.0,98,-99.99,,,-99.99,,2016-12-06 09:04:00,
2016-12-06 01:13:00,35.0,34.0,-100.00,SE,134,4.0,6.0,98,-99.99,,,-99.99,,2016-12-06 09:13:00,
2016-12-06 01:23:00,35.0,34.0,-100.00,SE,134,4.0,6.0,98,-99.99,,,-99.99,,2016-12-06 09:23:00,
2016-12-06 01:33:00,33.0,32.0,-100.00,South,169,2.0,5.0,98,-99.99,,,-99.99,,2016-12-06 09:33:00,
2016-12-06 01:54:00,33.0,32.0,-100.00,South,169,2.0,5.0,98,-99.99,,,-99.99,,2016-12-06 09:54:00,
2016-12-06 02:03:00,33.0,32.0,-100.00,South,169,2.0,5.0,98,-99.99,,,-99.99,,2016-12-06 10:03:00,
2016-12-06 02:12:00,33.0,32.0,-100.00,South,169,2.0,5.0,98,-99.99,,,-99.99,,2016-12-06 10:12:00,
2016-12-06 02:23:00,33.0,32.0,-100.00,South,169,2.0,5.0,98,-99.99,,,-99.99,,2016-12-06 10:23:00,
2016-12-06 02:33:00,33.0,32.0,-100.00,North,-9999,0.0,8.0,96,-99.99,,,-99.99,,2016-12-06 10:33:00,
2016-12-06 02:54:00,33.0,32.0,-100.00,North,-9999,0.0,8.0,96,-99.99,,,-99.99,,2016-12-06 10:54:00,
2016-12-06 03:13:00,33.0,32.0,-100.00,North,-9999,0.0,8.0,96,-99.99,,,-99.99,,2016-12-06 11:13:00,
2016-12-06 03:23:00,33.0,32.0,-100.00,North,-9999,0.0,8.0,96,-99.99,,,-99.99,,2016-12-06 11:23:00,
2016-12-06 03:33:00,31.0,30.0,-100.00,North,-9999,0.0,2.0,97,-99.99,,,-99.99,,2016-12-06 11:33:00,
2016-12-06 03:56:00,31.0,30.0,-100.00,North,-9999,0.0,2.0,97,-99.99,,,-99.99,,2016-12-06 11:56:00,
2016-12-06 04:03:00,31.0,30.0,-100.00,North,-9999,0.0,2.0,97,-99.99,,,-99.99,,2016-12-06 12:03:00,
2016-12-06 04:13:00,31.0,30.0,-100.00,North,-9999,0.0,2.0,97,-99.99,,,-99.99,,2016-12-06 12:13:00,
2016-12-06 04:23:00,31.0,30.0,-100.00,North,-9999,0.0,2.0,97,-99.99,,,-99.99,,2016-12-06 12:23:00,
2016-12-06 04:33:00,32.0,31.0,-100.00,SE,142,2.0,4.0,98,-99.99,,,-99.99,,2016-12-06 12:33:00,
2016-12-06 04:58:00,32.0,31.0,-100.00,SE,142,2.0,4.0,98,-99.99,,,-99.99,,2016-12-06 12:58:00,
2016-12-06 05:03:00,32.0,31.0,-100.00,SE,142,2.0,4.0,98,-99.99,,,-99.99,,2016-12-06 13:03:00,
2016-12-06 05:13:00,32.0,31.0,-100.00,SE,142,2.0,4.0,98,-99.99,,,-99.99,,2016-12-06 13:13:00,
2016-12-06 05:23:00,32.0,31.0,-100.00,SE,142,2.0,4.0,98,-99.99,,,-99.99,,2016-12-06 13:23:00,
2016-12-06 05:33:00,31.0,31.0,-100.00,ESE,119,1.0,3.0,98,-99.99,,,-99.99,,2016-12-06 13:33:00,
2016-12-06 05:56:00,31.0,31.0,-100.00,ESE,119,1.0,3.0,98,-99.99,,,-99.99,,2016-12-06 13:56:00,
2016-12-06 06:03:00,31.0,31.0,-100.00,ESE,119,1.0,3.0,98,-99.99,,,-99.99,,2016-12-06 14:03:00,
2016-12-06 06:13:00,31.0,31.0,-100.00,ESE,119,1.0,3.0,98,-99.99,,,-99.99,,2016-12-06 14:13:00,
2016-12-06 06:23:00,31.0,31.0,-100.00,ESE,119,1.0,3.0,98,-99.99,,,-99.99,,2016-12-06 14:23:00,
2016-12-06 06:33:00,32.0,30.0,-100.00,SE,134,2.0,5.0,91,-99.99,,,-99.99,,2016-12-06 14:33:00,
2016-12-06 06:55:00,32.0,30.0,-100.00,SE,134,2.0,5.0,91,-99.99,,,-99.99,,2016-12-06 14:55:00,
2016-12-06 07:03:00,32.0,30.0,-100.00,SE,134,2.0,5.0,91,-99.99,,,-99.99,,2016-12-06 15:03:00,
2016-12-06 07:13:00,32.0,30.0,-100.00,SE,134,2.0,5.0,91,-99.99,,,-99.99,,2016-12-06 15:13:00,
2016-12-06 07:22:00,32.0,30.0,-100.00,SE,134,2.0,5.0,91,-99.99,,,-99.99,,2016-12-06 15:22:00,
2016-12-06 07:54:00,32.0,30.0,-100.00,SE,131,3.0,6.0,93,-99.99,,,-99.99,,2016-12-06 15:54:00,
2016-12-06 08:03:00,32.0,30.0,-100.00,SE,131,3.0,6.0,93,-99.99,,,-99.99,,2016-12-06 16:03:00,
2016-12-06 08:13:00,32.0,30.0,-100.00,SE,131,3.0,6.0,93,-99.99,,,-99.99,,2016-12-06 16:13:00,
2016-12-06 08:23:00,32.0,30.0,-100.00,SE,131,3.0,6.0,93,-99.99,,,-99.99,,2016-12-06 16:23:00,
2016-12-06 08:54:00,33.0,31.0,-100.00,SE,136,3.0,7.0,93,-99.99,,,-99.99,,2016-12-06 16:54:00,
2016-12-06 09:03:00,33.0,31.0,-100.00,SE,136,3.0,7.0,93,-99.99,,,-99.99,,2016-12-06 17:03:00,
2016-12-06 09:13:00,33.0,31.0,-100.00,SE,136,3.0,7.0,93,-99.99,,,-99.99,,2016-12-06 17:13:00,
2016-12-06 09:23:00,33.0,31.0,-100.00,SE,136,3.0,7.0,93,-99.99,,,-99.99,,2016-12-06 17:23:00,
2016-12-06 09:33:00,33.0,31.0,-100.00,SE,136,4.0,8.0,93,-99.99,,,-99.99,,2016-12-06 17:33:00,
2016-12-06 09:58:00,33.0,31.0,-100.00,SE,136,4.0,8.0,93,-99.99,,,-99.99,,2016-12-06 17:58:00,
2016-12-06 10:04:00,33.0,31.0,-100.00,SE,136,4.0,8.0,93,-99.99,,,-99.99,,2016-12-06 18:04:00,
2016-12-06 10:13:00,33.0,31.0,-100.00,SE,136,4.0,8.0,93,-99.99,,,-99.99,,2016-12-06 18:13:00,
2016-12-06 10:23:00,33.0,31.0,-100.00,SE,136,4.0,8.0,93,-99.99,,,-99.99,,2016-12-06 18:23:00,
2016-12-06 10:33:00,35.0,32.0,-100.00,SE,134,3.0,9.0,89,-99.99,,,-99.99,,2016-12-06 18:33:00,
2016-12-06 10:55:00,35.0,32.0,-100.00,SE,134,3.0,9.0,89,-99.99,,,-99.99,,2016-12-06 18:55:00,
2016-12-06 11:03:00,35.0,32.0,-100.00,SE,134,3.0,9.0,89,-99.99,,,-99.99,,2016-12-06 19:03:00,
2016-12-06 11:13:00,35.0,32.0,-100.00,SE,134,3.0,9.0,89,-99.99,,,-99.99,,2016-12-06 19:13:00,
2016-12-06 11:23:00,35.0,32.0,-100.00,SE,134,3.0,9.0,89,-99.99,,,-99.99,,2016-12-06 19:23:00,
2016-12-06 11:56:00,35.0,31.0,-100.00,SE,127,5.0,10.0,86,-99.99,,,-99.99,,2016-12-06 19:56:00,
2016-12-06 12:03:00,35.0,31.0,-100.00,SE,127,5.0,10.0,86,-99.99,,,-99.99,,2016-12-06 20:03:00,
2016-12-06 12:13:00,35.0,31.0,-100.00,SE,127,5.0,10.0,86,-99.99,,,-99.99,,2016-12-06 20:13:00,